Location: Alexander
(41.3564°N, 81.5960°W)
Time: 09:36:54
(UTC+00:00)

Meteor 2-1 Rocket - Pass Details

Date: 24 January 2021
Orbit: 827 x 910 km, 81.3° (Epoch: 02 March)

Event Time Altitude Azimuth Distance (km) Brightness Sun altitude
Rises 23:21:27 0° 352° (N) 3,399 7.3 -9.3°
Reaches altitude 10° 23:23:54 10° 355° (N) 2,453 6.5 -9.7°
Maximum altitude 23:29:25 69° 79° (E) 886 4.1 -10.7°
Drops below altitude 10° 23:34:52 10° 163° (SSE) 2,422 6.6 -11.7°
Sets 23:37:16 0° 165° (SSE) 3,353 7.3 -12.1°
